User: anonymous   Login
Location: Unspecified
(0.0000°N, 0.0000°E)
Time: 20:39:48
(UTC+00:00)
Language:

MERIDIAN 4 - Orbit

View from above orbital plane
View from above orbital plane
View from above satellite
View from above satellite

Ground track
Ground track

The orbit data is extracted from the following two-line orbital elements,

1 37398U 11018A   18142.64884833 +.00000157 +00000-0 +10000-3 0  9998
2 37398 064.4793 129.1776 6913322 260.8394 123.9169 02.00622662051649
Epoch (UTC): 22 May 2018 15:34:20
Eccentricity: 0.6913322
inclination: 64.4793°
perigee height: 1818 km
apogee height: 38535 km
right ascension of ascending node: 129.1776°
argument of perigee: 260.8394°
revolutions per day: 2.00622662
mean anomaly at epoch: 123.9169°
orbit number at epoch: 5164

The dashed part of the orbit path shows where the satellite is in the earth's shadow,  

DLR